User: anonymous   Login
Location: Cincinnati Observatory Center
(39.1389°N, 84.4225°W)
Time: 03:38:24
(UTC-05:00)
Language:

COSMOS 2428 - Orbit

View from above orbital plane
View from above orbital plane
View from above satellite
View from above satellite

Ground track
Ground track

The orbit data is extracted from the following two-line orbital elements,

1 31792U 07029A   18053.14285685  .00000334  00000-0  20663-3 0  9996
2 31792  70.9470 247.6594 0011472 260.7963  99.1860 14.12455169549364
Epoch (UTC): 22 February 2018 03:25:42
Eccentricity: 0.0011472
inclination: 70.9470°
perigee height: 842 km
apogee height: 859 km
right ascension of ascending node: 247.6594°
argument of perigee: 260.7963°
revolutions per day: 14.12455169
mean anomaly at epoch: 99.1860°
orbit number at epoch: 54936

The dashed part of the orbit path shows where the satellite is in the earth's shadow,  

DLR